Weather History for Atwater, CA

Change the Weather History Date:

Friday, October 18, 2013

  Actual Average (KMCE) Record (KMCE)
Temperature  
Mean Temperature 65 °F 63 °F  
Max Temperature 86 °F 78 °F 92 °F (2012)
Min Temperature 44 °F 48 °F 40 °F (1998)
Degree Days  
Heating Degree Days 0    
Month to date heating degree days  
Since 1 July heating degree days  
Cooling Degree Days 0    
Month to date cooling degree days  
Year to date cooling degree days  
Growing Degree Days 15 (Base 50)    
Moisture  
Dew Point 39 °F    
Average Humidity 59    
Maximum Humidity 87    
Minimum Humidity 14    
Precipitation  
Precipitation 0.00 in 0.02 in 0.28 in (2004)
Month to date precipitation 0.28  
Year to date precipitation 9.27  
Since 1 July precipitation 0.59  
Snow  
Snow 0.00 in - - ()
Month to date snowfall  
Since 1 July snowfall  
Since 1 September snowfall  
Snow Depth -    
Sea Level Pressure  
Sea Level Pressure 30.00 in    
Wind  
Wind Speed 2 mph (ENE)    
Max Wind Speed 9 mph    
Max Gust Speed -    
Visibility 10 miles    
Events      
T = Trace of Precipitation, MM = Missing Value Source: NWS Daily Summary

Daily Weather History Graph

Daily Weather History Graph

Search for Another Location

Airport:

Trip Planner

Search our weather history database for the weather conditions in past years. The results will help you decide how hot, cold, wet, or windy it might be!

Date:

Astronomy

Oct. 18, 2013 Rise Set
Actual Time 7:13 AM PDT 6:20 PM PDT
Civil Twilight 6:47 AM PDT 6:47 PM PDT
Nautical Twilight 6:16 AM PDT 7:17 PM PDT
Astronomical Twilight 5:46 AM PDT 7:47 PM PDT
Moon 6:14 PM PDT (10/18) 6:54 AM PDT (10/18)
Length of Visible Light 12h 00m
Length of Day
11h 07m
Full, 100% of the Moon is Illuminated
Oct 18
Full
Oct 18
Full
Oct 26
Last Quarter
Nov 3
New
Nov 9
First Quarter

Hourly Weather History & Observations

Time (PDT) Temp. Windchill Dew Point Humidity Pressure Visibility Wind Dir Wind Speed Gust Speed Precip Events Conditions
12:15 AM 50.0 °F - 37.4 °F 62% 29.98 in 10.0 mi Calm Calm - N/A   Clear
12:35 AM 53.6 °F - 39.2 °F 58% 29.97 in 10.0 mi North 3.5 mph - N/A   Clear
12:55 AM 51.8 °F - 39.2 °F 62% 29.97 in 10.0 mi Calm Calm - N/A   Clear
1:15 AM 50.0 °F - 42.8 °F 76% 29.98 in 10.0 mi Calm Calm - N/A   Clear
1:35 AM 48.2 °F - 42.8 °F 82% 29.98 in 10.0 mi East 3.5 mph - N/A   Clear
1:55 AM 48.2 °F - 44.6 °F 87% 29.98 in 10.0 mi Calm Calm - N/A   Clear
2:15 AM 46.4 °F 45.2 °F 42.8 °F 87% 29.98 in 10.0 mi SSE 3.5 mph - N/A   Clear
2:35 AM 46.4 °F 45.2 °F 42.8 °F 87% 29.99 in 10.0 mi SSE 3.5 mph - N/A   Clear
2:55 AM 46.4 °F 43.5 °F 41.0 °F 81% 29.99 in 10.0 mi SSE 5.8 mph - N/A   Clear
3:15 AM 46.4 °F - 39.2 °F 76% 29.99 in 10.0 mi Calm Calm - N/A   Clear
3:35 AM 48.2 °F - 39.2 °F 71% 29.99 in 10.0 mi Calm Calm - N/A   Clear
3:55 AM 46.4 °F - 39.2 °F 76% 29.99 in 10.0 mi Calm Calm - N/A   Clear
4:15 AM 48.2 °F - 37.4 °F 66% 29.99 in 10.0 mi SSE 3.5 mph - N/A   Clear
4:35 AM 46.4 °F 45.2 °F 39.2 °F 76% 29.99 in 10.0 mi SSW 3.5 mph - N/A   Clear
4:55 AM 46.4 °F - 37.4 °F 71% 30.00 in 10.0 mi Calm Calm - N/A   Clear
5:15 AM 46.4 °F - 39.2 °F 76% 30.00 in 10.0 mi Calm Calm - N/A   Clear
5:35 AM 46.4 °F - 39.2 °F 76% 30.01 in 10.0 mi Calm Calm - N/A   Clear
5:55 AM 46.4 °F - 37.4 °F 71% 30.01 in 10.0 mi Calm Calm - N/A   Clear
6:15 AM 44.6 °F 42.2 °F 39.2 °F 81% 30.01 in 10.0 mi South 4.6 mph - N/A   Clear
6:35 AM 44.6 °F 42.2 °F 39.2 °F 81% 30.01 in 10.0 mi SE 4.6 mph - N/A   Clear
6:50 AM 44.6 °F 43.1 °F 37.4 °F 76% 30.01 in 10.0 mi Variable 3.5 mph - N/A   Clear
6:55 AM 44.6 °F 43.1 °F 37.4 °F 76% 30.01 in 7.0 mi SSE 3.5 mph - N/A   Clear
7:58 AM 48.2 °F - 39.2 °F 71% 30.04 in 10.0 mi Calm Calm - N/A   Clear
8:54 AM 57.2 °F - 37.4 °F 48% 30.05 in 10.0 mi Calm Calm - N/A   Clear
9:45 AM 64.4 °F - 39.2 °F 40% 30.06 in 10.0 mi Calm Calm - N/A   Clear
10:45 AM 73.4 °F - 35.6 °F 25% 30.06 in 10.0 mi Variable 4.6 mph - N/A   Clear
11:45 AM 78.8 °F - 35.6 °F 21% 30.05 in 10.0 mi Variable 3.5 mph - N/A   Clear
12:45 PM 82.4 °F - 33.8 °F 17% 30.03 in 10.0 mi Calm Calm - N/A   Clear
1:45 PM 84.2 °F - 33.8 °F 16% 30.01 in 10.0 mi Calm Calm - N/A   Clear
2:45 PM 84.2 °F - 33.8 °F 16% 29.99 in 7.0 mi Variable 4.6 mph - N/A   Clear
3:45 PM 86.0 °F - 32.0 °F 14% 29.98 in 7.0 mi Calm Calm - N/A   Clear
4:45 PM 84.2 °F - 32.0 °F 15% 29.97 in 10.0 mi Calm Calm - N/A   Clear
5:45 PM 80.6 °F - 35.6 °F 20% 29.97 in 10.0 mi NNW 5.8 mph - N/A   Clear
6:47 PM 71.6 °F - 37.4 °F 29% 29.98 in 10.0 mi NNW 6.9 mph - N/A   Clear
7:45 PM 64.4 °F - 41.0 °F 42% 29.99 in 10.0 mi NNW 8.1 mph - N/A   Clear
8:45 PM 60.8 °F - 42.8 °F 52% 30.00 in 10.0 mi NW 9.2 mph - N/A   Clear
9:15 PM 59.0 °F - 46.4 °F 63% 30.00 in 10.0 mi Calm Calm - N/A   Clear
9:35 PM 57.2 °F - 44.6 °F 63% 30.00 in 6.0 mi NE 3.5 mph - N/A   Clear
9:55 PM 57.2 °F - 44.6 °F 63% 30.01 in 6.0 mi Calm Calm - N/A   Clear
10:15 PM 55.4 °F - 44.6 °F 67% 30.01 in 7.0 mi Calm Calm - N/A   Clear
10:35 PM 55.4 °F - 44.6 °F 67% 30.01 in 9.0 mi NE 3.5 mph - N/A   Clear
10:55 PM 57.2 °F - 42.8 °F 59% 30.02 in 10.0 mi Calm Calm - N/A   Clear
11:15 PM 57.2 °F - 42.8 °F 59% 30.01 in 10.0 mi NNE 3.5 mph - N/A   Clear
11:35 PM 57.2 °F - 42.8 °F 59% 30.01 in 10.0 mi North 3.5 mph - N/A   Clear
11:55 PM 53.6 °F - 41.0 °F 62% 30.01 in 10.0 mi Calm Calm - N/A   Clear